Regional Weather Roundup
Issued by NWS Upton, NY

Current Version | Previous Version | Graphics & Text | Print | Product List | Glossary Off
Versions: 1 2 3 4 5 6 7 8 9 10 11 12 13 14 15 16 17 18 19 20 21 22 23 24 25 26 27 28 29 30 31 32 33 34 35 36 37 38 39 40 41 42 43 44 45 46 47 48 49 50

000
ASUS41 KOKX 200008
RWROKX

REGIONAL WEATHER ROUNDUP
NATIONAL WEATHER SERVICE NEW YORK NY
700 PM EST THU JAN 19 2017

NOTE: "FAIR" INDICATES FEW OR NO CLOUDS BELOW 12,000 FEET WITH NO
SIGNIFICANT WEATHER AND/OR OBSTRUCTIONS TO VISIBILITY.

NYZ071-072-176-178-NJZ106-104-200100-
NEW YORK CITY METRO AREA

CITY           SKY/WX    TMP DP  RH WIND       PRES   REMARKS
Central Park   CLOUDY    43  32  65 VRB7      30.06R
Wall St Helipt CLOUDY    45  34  65 W8        30.06R
Bronx Bot Gard NOT AVBL
LaGuardia APRT MOCLDY    45  33  63 NW12      30.04R
Kennedy INTL   CLOUDY    46  30  53 NW9       30.05R
Breezy Point     N/A     43 N/A N/A NW7         N/A
Newark/Liberty CLOUDY    43  32  65 NW7       30.04R
Teterboro      CLOUDY    43  32  65 W7        30.03R
$$

NYZ177-179-078>081-200100-
LONG ISLAND NEW YORK

CITY           SKY/WX    TMP DP  RH WIND       PRES   REMARKS
Jones Beach      N/A     43 N/A N/A W8          N/A
Matinecock PT  NOT AVBL
Farmingdale    CLOUDY    43  33  68 NW3       30.03R
MacArthur/ISP  CLOUDY    44  35  70 W6        30.02R
Shirley        CLOUDY    42  36  79 NW3       30.03R
Westhampton    CLOUDY    34  30  85 CALM      30.03R
Southampton    NOT AVBL
Bridgehampton  NOT AVBL
East Hampton   CLOUDY    41  34  78 NW3       30.01R
Montauk          N/A     43  37  79 W5        30.02R
$$

NYZ052-065-067-200100-
HUDSON VALLEY

CITY           SKY/WX    TMP DP  RH WIND       PRES   REMARKS
White Plains   MOCLDY    42  34  73 W6        30.01R
Newburgh       MOCLDY    41  36  81 CALM      30.04R
Montgomery     CLOUDY    42  32  67 NW6       30.02R
Poughkeepsie   CLOUDY    41  32  70 N5        30.03R
Albany         MOCLDY    37  31  78 NW6       30.03S WCI  32
$$

NJZ001-105-106-008-010-013-015-019>022-104-200100-
NEW JERSEY

CITY           SKY/WX    TMP DP  RH WIND       PRES   REMARKS
Newark/Liberty CLOUDY    43  32  65 NW7       30.04R
Teterboro      CLOUDY    43  32  65 W7        30.03R
Caldwell       CLOUDY    38  32  79 SE3       30.04R
Somerville     CLOUDY    43  32  65 NW5       30.04R
Linden         MOCLDY    43  32  66 N5        30.04R
Sussex         CLOUDY    33  30  88 CALM      30.03R
Andover          N/A     38  32  79 CALM      30.04R
Trenton        CLOUDY    42  33  70 N3        30.03R
Millville      CLOUDY    36  34  92 CALM      30.02F
Atlantic City  CLOUDY    41  34  76 N3        30.05R
Wrightstown    CLOUDY    39  32  77 N3        30.01S
Toms River     CLOUDY    43  35  73 NW5       30.05R
Belmar         CLOUDY    43  34  70 W9        30.05R
$$

PAZ047>061-062-071-200100-
EASTERN PENNSYLVANIA

CITY           SKY/WX    TMP DP  RH WIND       PRES   REMARKS
Philadelphia   CLOUDY    44  34  67 VRB3      30.04F
Allentown      CLOUDY    42  32  67 NW6       30.05R
Scranton       CLOUDY    39  33  79 N3        30.03R
$$

CTZ002-004>006-009-010-012-RIZ004-006-007-MAZ004-011-015-200100-
SOUTHERN NEW ENGLAND
 IN CT

CITY           SKY/WX    TMP DP  RH WIND       PRES   REMARKS
Bradley INTL   CLOUDY    41  32  70 NW9       30.01S
Hartford       CLOUDY    42  32  67 NW7       30.02R
Danbury        CLOUDY    42  32  67 NE8       30.03R
Wtrbury/Oxford MOCLDY    39  28  65 N12G18    30.02R WCI  32
Bridgeport     CLOUDY    46  33  60 N7        30.03R
Meriden        CLOUDY    44  30  57 NW6       30.03R
New Haven      CLOUDY    44  31  60 N8        30.02R
Chester        CLOUDY    43  32  65 NW6       30.01R
Groton         CLOUDY    43  32  65 NW5       30.01R
Wilimantic     CLOUDY    43  33  68 NW3       30.01S

 IN RI

CITY           SKY/WX    TMP DP  RH WIND       PRES   REMARKS
Providence     CLOUDY    44  33  65 N6        30.00R
Block Island   NOT AVBL
Westerly       CLOUDY    45  31  58 CALM      30.01R
 IN MA

CITY           SKY/WX    TMP DP  RH WIND       PRES   REMARKS
Boston         CLOUDY    43  32  65 NW12      30.01R
Worcester      CLOUDY    38  28  67 N10       29.97R WCI  31
Westfield      CLOUDY    40  33  76 NW6       30.00S
Provincetown   PTCLDY    41  33  73 NW10      30.00R
Nantucket      PTCLDY    38  33  82 N6        29.98R WCI  33
$$

ANZ330-335-338-340-345-350-353-355-200100-
COASTAL MARINE OBSERVATIONS


STATION/POSITION TIME  SKY/WX   TEMP    WIND        PRES    VSBY  WAVE
                                AIR SEA DIR/SP/G                  HT/PER
                 (UTC)          (F)     (DEG/KT/KT) (MB)    (MI)  (FT/S)
NY HARB ENTRANCE 2250            44 44  310/ 12/ 14 1016.1          5/11
20 S FIRE ISLAND 2350            44 45  310/ 12/ 14 1016.6          6/10
GREAT SOUTH BAY  NOT AVBL
23 SSW MONTAUK P 2350            45 48  290/  8/ 12 1016.5          5/ 9
15 E BARNEGAT LI 2330               48                N/A           6/11
HUDSON CANYON    2250            47 51              1016.1          8/11
KINGS POINT      2330            43 39              1016.6
EXECUTION ROCKS  2345            42     270/  8/ 10   N/A
CENTRAL LI SOUND 2330            43     310/ 10/ 12   N/A           1
EASTERN LI SOUND NOT AVBL
ROBBINS REEF     2330            43     300/ 11/ 12 1017.2
$$


>>>>>>>>>>>>>>>>>>>>>>>>>>>> KEY <<<<<<<<<<<<<<<<<<<<<<<<<<<
>                                                          <
>     SKY/WX - Sky Condition/Present Weather               <
>     TMP    - Temperature in Fahrenheit                   <
>     DP     - Dew Point in Fahrenheit                     <
>     RH     - Relative Humidity in Percent                <
>     WIND   - Direction (from) and Speed in MPH           <
>     PRES   - Mean Sea Level Pressure (inches of Hg)      <
>     WCI    - Wind Chill Index                            <
>     VSB    - VISIBILITY IN MILES                         <
>     HX     - HEAT INDEX                                  <
>     TC     - TEMPERATURE IN CELSIUS                      <
>     VRB    - VARIABLE WIND DIRECTION                     <
>                                                          <
>>>>>>>>>>>>>>>>>>>>>>>>>>>> KEY <<<<<<<<<<<<<<<<<<<<<<<<<<<



USA.gov is the U.S. government's official web portal to all federal, state and local government web resources and services.